Temp_Advection
nan nan nan nan nan nan nan nan nan nan nan nan nan nan nan nan nan nan nan nan nan nan nan nan nan nan nan nan nan nan nan nan nan nan nan nan nan nan nan nan nan nan nan nan nan nan nan nan nan nan nan nan nan nan nan nan nan nan nan nan nan nan nan nan nan nan nan nan nan
nan -0 -0 -0 -0 -0 -0 -0 -0 -0 -0 -0 -0 -0 -0 -0 -0 -0 -0 -0 -0 -0 -0 -0 -0 0 0 0 0 -0 -0 -0 -0 -0 -0 -0 -0 -0 -0 -0 -0 -0 -0 -0 -0 -0 -0 -0 -0 -1 -1 -1 -0 -0 -0 -0 -0 -0 -0 -0 -0 -0 -0 -1 -0 -0 -0 -0 nan
nan -0 -0 -0 -0 -0 -0 -0 -0 -0 -0 -0 -0 -0 -0 -0 -0 -0 -0 -0 -0 -0 -0 -0 -0 0 0 0 0 0 -0 -0 -0 -0 -0 -0 -0 -0 -0 -0 -0 -0 -0 -0 -0 -0 -0 -0 -0 -1 -1 -1 -0 -0 -0 -0 -0 -0 -0 -0 -0 -0 -0 -1 -1 -0 -0 -0 nan
nan -0 -0 -0 -0 -0 -0 -0 -0 -0 -0 -0 -0 -0 -0 -0 -0 -0 -0 -0 -0 -0 -0 -0 -0 -0 0 0 0 0 -0 -0 -0 -0 -0 -0 -0 -0 -0 -0 -0 -0 -0 -0 -0 -0 -0 -0 -0 -0 -0 -0 -0 -0 -0 -0 -0 -0 -0 -0 -0 -0 -0 -0 -0 -0 -0 -0 nan
nan -0 -0 -0 -0 -0 -0 -0 -0 -0 -0 -0 -0 -1 -1 -1 -1 -1 -0 -0 -0 -0 -0 -0 -0 -0 -0 0 0 0 0 -0 -0 -0 -0 -0 -0 -0 -0 -0 -0 -0 -0 -0 -0 -0 -0 -0 -0 -0 -0 -0 -0 -0 -0 -0 -0 -0 -0 -0 -0 -0 -0 -0 -0 -0 -0 -0 nan
nan -0 -0 -0 -0 -0 -0 -0 -0 -0 -0 -0 -0 -1 -1 -1 -1 -1 -1 -1 -1 -0 -0 -0 -0 -0 -0 -0 0 0 0 0 -0 -0 -0 -0 -0 -0 -0 -0 -0 -0 -0 -0 -0 -0 -0 -0 -0 -0 -0 -0 -0 -0 -0 -0 -0 -0 -0 -0 -1 -0 -0 -0 -0 -0 -0 -0 nan
nan -0 -0 -0 -0 -0 -0 -0 -0 -0 -0 -0 -0 -0 -0 -0 -0 -1 -1 -1 -0 -0 -0 -0 -0 -0 -0 -0 -0 0 0 0 -0 -0 -0 -0 -0 -0 -0 -0 -0 -0 -0 -0 -0 -0 -0 -0 -0 -0 -0 -0 -0 -0 -0 -0 -0 -0 -1 -1 -0 -1 -0 -0 -0 -0 -0 -0 nan
nan -0 -0 -0 -0 -0 -0 -0 -0 -0 -0 -0 -0 -0 -0 -0 -0 -0 -0 -0 -0 -0 -0 -0 0 -0 -0 -0 -0 -0 -0 -0 -0 -0 -0 -0 -0 -0 -0 -0 -0 -0 -0 -0 -0 -0 -0 -0 -0 -0 -0 -0 -0 -0 -0 -0 -0 -0 -1 -1 -1 -0 -0 -0 -0 -0 -0 -0 nan
nan -0 -0 -0 -0 -0 -0 -0 -0 -0 -0 -0 -0 -0 -0 -0 -0 -0 -0 -0 -0 -0 -0 -0 -0 -0 -0 -0 -0 -0 -0 -0 -0 -0 -0 -0 -0 -0 -0 -0 -0 -0 -0 -0 -0 -0 -0 -0 -0 -0 -0 -0 -0 -0 -1 -1 -0 -0 -0 -1 -1 -0 -0 -0 -0 -0 -0 -0 nan
nan -0 -0 -0 -0 -0 -0 -0 -0 -0 -0 -0 -0 -0 -0 -0 -0 -0 -0 -0 -0 -0 -0 -0 -0 -0 -0 -0 -0 -0 -0 -0 -0 -0 -0 -0 -0 -0 -0 -0 -0 -0 -0 -0 -0 -0 -0 -0 -0 -0 -0 -0 -0 -0 -0 -1 -0 -0 -0 -0 -1 -1 -0 -0 -0 -0 -0 -0 nan
nan -0 -0 -0 -0 -0 -0 -0 -0 -0 -0 -0 -0 -0 -0 -0 -0 -0 -0 -0 -0 -0 -0 -0 -0 -0 -0 -0 -0 -0 -0 -0 -0 -0 -0 -0 -0 -0 -0 -0 -0 -0 -1 -1 -0 -0 -0 -0 -0 -0 -0 -0 -0 -0 -0 -0 -0 -0 -0 -0 -0 -1 -1 -0 -0 -0 -0 -0 nan
nan -0 -0 -0 -0 -0 -0 -0 -0 -0 -0 -0 -0 -0 -0 -0 -0 -0 -0 -0 -0 -0 -0 -0 -0 -0 -0 -0 -0 -0 -0 -0 -0 -0 -0 -0 -0 -0 -0 -0 -0 -1 -0 -0 -0 -0 -0 -0 -0 -0 -0 -0 -0 -0 -0 -0 -0 -0 -0 -1 -0 -0 -0 -0 -0 -0 -0 -0 nan
nan -0 -0 -0 -0 -0 -0 -0 -0 -0 -0 -0 -0 -0 -0 -0 -0 -0 -0 -0 -0 -0 -0 -0 -0 -0 -0 -0 -0 -0 -0 -0 -0 -0 -0 -0 -0 -0 -0 -0 -0 -0 -0 -0 -0 -0 -0 -0 -0 -0 -0 -0 -0 -0 -0 -0 -0 -0 -0 -1 -0 -0 -0 -0 -0 -0 -0 -0 nan
nan -0 -0 -0 -0 -0 -0 -0 -0 -0 -0 -0 -0 -0 -0 -0 -0 -0 -0 -0 -0 -0 -0 -0 -0 -0 -0 -0 -0 -0 -0 -0 -0 -0 -0 -0 -0 -0 -0 -0 -0 -0 -0 -0 -0 -0 -0 -0 -0 -0 -0 -0 -0 -0 -0 -0 -0 -0 -0 -0 -0 -0 -0 -0 -0 -0 -0 -0 nan
nan -0 -0 -0 -0 -0 -0 -0 -0 -0 -0 -0 -0 -0 -0 -0 -0 -0 -0 -0 -0 -0 -0 -0 -0 -0 -0 -0 -0 -0 -0 -0 -0 -0 -0 0 0 0 -0 -0 -0 -0 -0 -0 -0 -0 -0 -0 -0 -0 -0 -0 -1 -1 -1 -0 -0 -0 -0 -0 -0 -0 -0 -0 -0 -0 -0 -0 nan
nan -0 -0 -0 -0 -0 -0 -0 -0 -0 -0 -0 -0 -0 -0 -0 -0 -0 -0 -0 -0 -0 -0 -0 -0 -0 -0 -0 -0 -0 -0 -0 -0 -0 -0 -0 0 0 0 0 -0 -0 -0 -0 -0 -0 -0 -0 -0 -0 -0 -0 -1 -1 -1 -0 -0 -0 -0 -0 -0 -0 -1 -0 -0 -0 -0 -0 nan
nan -0 -0 -0 -0 -0 -0 -0 -0 -0 -0 -0 -0 -0 -0 -0 -0 -0 -0 -0 -0 -0 -0 -0 -0 -0 -0 -0 -0 -0 -0 -0 -0 -0 -0 -0 -0 -0 0 0 -0 -0 -0 -0 -0 -0 -0 -0 0 -0 -0 -0 -0 -1 -0 -0 -0 -0 -0 -0 -0 -0 -0 -0 -1 -1 -0 -0 nan
nan -0 -0 -0 -0 -0 -0 -0 -0 -0 -0 -0 -0 -0 -0 -0 -0 -0 -0 -0 -0 -0 -0 -0 -0 -0 -0 -0 -0 -0 -0 -0 -0 -0 -0 -0 -0 0 -0 -0 -0 -0 -0 -0 -0 -0 -0 -0 0 0 -0 -0 -0 -0 -0 -0 -0 -0 -0 -0 -0 -0 -0 -0 -1 -1 -1 -0 nan
nan -0 -0 -0 -0 -0 -0 -0 -0 -0 -0 -0 -0 -0 -0 -0 -0 -0 -0 -0 -0 -0 -0 -0 -0 -0 -0 -0 -0 -0 -0 -0 -0 -0 -0 -0 -0 -0 -0 -0 -0 -0 -0 -0 -0 -0 -0 -0 -0 0 -0 -0 -0 -0 -0 -0 -0 -0 -0 -0 -0 -0 -0 -0 -1 -1 -0 -0 nan
nan -0 -0 -0 -0 -0 -0 -0 -0 -0 -0 -0 -0 -0 -0 -0 -0 -0 -0 -0 -0 -0 -0 -0 -0 -0 -0 -0 -0 -0 -0 -0 -0 -0 -0 -0 -0 -0 -0 -1 -1 -1 -0 -0 -0 -0 -0 -0 0 0 -0 -0 -0 -1 -0 -0 -0 -0 -0 -0 -0 -0 -1 -0 -0 -0 -0 -0 nan
nan -0 -0 -0 -0 -0 -0 -0 -0 -0 -0 -0 -0 -0 -0 -0 -0 -0 -0 -0 -0 -0 -0 -0 -0 -0 -0 -0 -0 0 -0 -0 -0 -0 -0 -0 -1 -1 -1 -1 -0 -0 -0 -0 -0 -0 0 0 0 -0 -0 -0 -0 -1 -1 -1 -1 -1 -0 -0 -0 -0 -0 -1 -1 -1 -0 -0 nan
nan -0 -0 -0 -0 -0 -0 -0 -0 -0 -0 -0 -0 -0 -0 -0 -0 -0 -0 -0 -0 -0 -0 -0 -0 -0 -0 -0 -0 -0 -0 -0 -0 -0 -0 -0 -0 -1 -1 -0 -0 -0 -0 -0 -0 0 0 0 -0 -0 -0 -1 -1 -1 -1 -1 -1 -1 -1 -1 -1 -1 -1 -1 -0 -0 -1 -1 nan
nan -0 -0 -0 -0 -0 -0 -0 -0 -0 -0 -0 -0 -0 -0 -0 -0 -0 -0 -0 -0 -0 -0 -0 -0 -0 -0 -0 -0 -0 -0 -0 -1 -1 -0 -0 -0 -0 -0 -0 -0 -0 -0 -0 -0 0 -0 -0 -0 -0 -1 -1 -1 -1 -1 -0 -1 -1 -1 -1 -1 -1 -1 -1 -1 -1 -1 -1 nan
nan -0 -0 -0 -0 -0 -0 -0 -0 -0 -0 -0 -0 -0 -0 -0 -0 -0 -0 -0 -0 -0 -0 -0 -0 -0 -0 -0 -0 -0 -0 -1 -1 -1 -1 -0 -0 -0 -0 0 -0 -0 -0 0 0 0 -0 -0 -0 -0 -0 -1 -1 -1 -1 -0 -0 -0 -1 -1 -1 -1 -1 -1 -1 -1 -1 -1 nan
nan -0 -0 -0 -0 -0 -0 -0 -0 -0 -0 -0 -0 -0 -0 -0 -0 -0 -0 -0 -0 -0 -0 -0 -0 -0 -0 -0 -0 -1 -1 -1 -1 -1 -1 -0 -0 -0 -0 0 0 0 -0 -0 0 0 0 0 -0 -0 -0 -0 -1 -1 -1 -1 -1 -1 -1 -1 -1 -1 -1 -1 -1 -1 -1 -1 nan
nan -0 -0 -0 -0 -0 -0 -0 -0 -0 -0 -0 -0 -0 -0 -0 -0 -0 -0 -0 -0 -0 -0 -0 -0 -0 -1 -1 -1 -1 -1 -1 -1 -1 -1 -1 -0 -0 -0 -0 -0 -0 -0 -0 0 0 0 0 0 0 -0 -0 -1 -1 -1 -1 -1 -1 -1 -1 -1 -1 -1 -1 -1 -1 -1 -1 nan
nan -0 -0 -0 -0 -0 -0 -0 -0 -0 -0 -0 -0 -0 -0 -0 -0 -0 -0 -0 -0 -0 -0 -0 -0 -0 -1 -1 -1 -1 -1 -1 -0 -0 -0 -0 -1 -0 -0 -0 -0 -0 -0 0 0 0 0 0 0 0 0 0 -0 -0 -1 -1 -1 -1 -0 -1 -1 -1 -1 -1 -1 -1 -1 -1 nan
nan -0 -0 -0 -0 -0 -0 -0 -0 -0 -0 -0 -0 -0 -0 -0 -0 -0 -0 -0 -0 -0 -0 -0 -1 -1 -1 -1 -1 -1 -1 -0 -0 -0 -0 -0 -0 -0 -0 -0 -0 -0 -0 0 0 -0 -0 0 0 0 0 0 0 -0 -0 -1 -1 -1 -1 -1 -1 -1 -1 -1 -1 -1 -1 -0 nan
nan -0 -0 -0 -0 -0 -0 -0 -0 -0 -0 -0 -0 -0 -0 -0 -0 -0 -0 -0 -0 -0 -0 -0 -1 -1 -1 -1 -1 -1 -1 -0 -0 -0 -0 -0 -0 -0 -0 -0 -0 -0 -0 -0 0 0 0 0 0 0 0 0 0 -0 -0 -0 -1 -1 -1 -1 -1 -1 -1 -1 -1 -1 -1 -0 nan
nan -0 -0 -0 -0 -0 -0 -0 -0 -0 -0 -0 -0 -0 -0 -0 -0 -0 -0 -0 -0 -0 -0 -0 -0 -0 -0 -0 -0 -0 -0 -0 -0 -0 -0 -0 -0 -0 -0 -0 -0 -0 -0 -0 0 0 0 0 0 0 0 0 0 0 -0 -0 -0 -1 -1 -1 -1 -1 -1 -1 -1 -1 -0 -0 nan
nan -0 -0 -0 -0 -0 -0 -0 -0 -0 -0 -0 -0 -0 -0 -0 -0 -0 -0 -0 -0 -0 -0 -0 -0 -0 -0 -0 -0 -0 -0 -0 -0 -0 -0 -0 -0 -0 -0 -0 -0 -0 -0 0 0 0 0 0 0 0 0 1 0 0 -0 -0 -0 -0 -1 -1 -1 -1 -1 -1 -1 -0 -0 -0 nan
nan -0 -0 -0 0 0 -0 -0 -0 -0 -0 -0 -0 -0 -0 -0 -0 -0 -0 -0 -0 -1 -1 -1 -0 -0 -0 -0 0 -0 -0 -0 -0 0 0 -0 -0 -0 -0 -0 -0 -0 0 0 0 0 0 0 0 0 0 0 0 0 -0 -0 -0 -1 -1 -1 -1 -0 -1 -1 -0 -0 -0 -0 nan
nan -0 -0 -0 -0 -0 -0 -0 -0 -0 -0 -0 -0 -0 -0 -0 -0 -0 -0 -0 -0 -1 -0 -0 -0 -0 -0 -0 -0 -0 -0 -0 -0 -0 0 0 0 -0 -0 -0 -0 -0 0 0 0 0 0 0 0 0 0 0 0 0 -0 -0 -0 -0 -1 -1 -1 -0 -0 -0 -0 -0 -0 -0 nan
nan -0 -0 -0 -0 -0 -0 -0 -0 -0 -0 -0 -0 -0 -0 -0 -0 -0 -0 -0 -0 -0 -0 -0 -0 -0 0 0 -0 -0 -0 -0 -0 -0 -0 0 0 0 -0 -0 -0 0 0 0 0 0 0 0 0 0 0 0 0 0 0 -0 -0 -0 -0 -0 -0 -0 -0 -0 -0 -0 -0 -0 nan
nan -0 -0 -0 -0 -0 -0 -0 -0 -0 -0 -0 -0 -0 -0 -0 -0 -0 -0 -0 -0 -0 -0 0 0 0 0 0 0 0 -0 -0 -0 -0 -0 -0 0 0 -0 -0 -0 0 0 0 0 0 0 0 0 0 0 0 0 0 -0 -0 -0 -0 -0 -0 -0 -0 -0 -0 -0 -0 -0 -0 nan
nan -0 -0 -0 -0 -0 -0 -0 -0 -0 -0 -0 -0 -0 -0 -0 -0 -0 -0 -0 -0 -0 -0 0 0 0 0 0 0 0 0 0 -0 -0 -0 -0 -0 0 0 -0 -0 0 0 0 0 0 0 0 0 0 0 0 0 0 -0 -0 -0 -0 -0 -0 -0 -0 -0 -0 -0 -0 -0 -0 nan
nan -0 -0 -0 -0 -0 -0 -0 -0 -0 -0 -0 -0 -0 -0 -0 -0 0 -0 -0 -0 -0 -0 -0 0 0 0 0 0 0 0 0 0 -0 -0 -0 -0 0 0 -0 -0 -0 0 0 0 0 0 0 0 0 0 0 0 0 0 -0 -0 -0 -0 -0 -0 -0 -0 -0 -0 -0 -0 -0 nan
nan -0 -0 -0 -0 -0 -0 -0 -0 -0 -0 -0 -0 -0 -0 -0 -0 0 0 0 -0 -0 -0 -0 -0 -0 -0 -0 -0 -0 -0 0 0 0 0 0 0 -0 0 -0 -0 -0 -0 0 0 0 0 0 0 0 0 0 0 0 0 0 -0 -0 -0 -0 -0 -0 -0 -0 -0 -0 -0 -0 nan
nan -0 -0 -0 -0 -0 -0 -0 -0 -0 -0 -0 -0 -0 -0 -0 -0 -0 0 0 -0 -0 -0 -0 -0 -0 -0 -0 -0 -1 -1 -0 0 0 0 0 0 0 0 0 -0 -0 0 0 0 0 0 0 0 0 0 0 0 0 0 0 -0 -0 -0 -0 -0 -0 -0 -0 -0 -0 -0 -0 nan
nan -0 -0 -0 -0 -0 -0 -0 -0 -0 -0 -0 -0 -0 -0 -0 -0 -0 -0 0 0 -0 -0 -0 -0 -0 -0 -0 -0 -1 -1 -0 -0 0 0 0 0 0 0 0 0 0 0 0 0 0 0 0 0 0 0 0 0 0 0 0 -0 -0 -0 -0 -0 -0 -0 -0 -0 -0 -0 -0 nan
nan nan nan nan nan nan nan nan nan nan nan nan nan nan nan nan nan nan nan nan nan nan nan nan nan nan nan nan nan nan nan nan nan nan nan nan nan nan nan nan nan nan nan nan nan nan nan nan nan nan nan nan nan nan nan nan nan nan nan nan nan nan nan nan nan nan nan nan nan
Wind_Speed
5 6 6 6 7 7 7 8 8 9 10 11 12 13 14 14 15 15 16 16 16 16 17 18 19 19 19 18 17 17 16 16 16 16 17 17 18 19 19 20 20 20 21 21 22 22 23 23 24 25 26 26 25 24 23 22 23 23 24 24 24 25 26 26 27 26 25 23 22
4 5 5 6 6 6 7 8 8 9 10 11 12 13 13 14 14 15 15 16 16 16 17 18 18 18 18 17 17 16 16 16 16 17 17 18 18 19 20 20 20 21 21 22 22 23 24 25 26 26 27 26 26 24 23 23 24 24 24 25 25 26 27 27 27 26 25 23 23
3 4 4 5 5 6 6 7 8 9 10 11 12 12 13 14 14 15 16 16 17 17 17 18 18 18 17 17 17 16 16 16 17 17 18 18 19 19 20 20 21 21 22 22 23 24 25 26 26 27 27 27 26 25 24 24 25 25 25 26 27 28 28 28 27 26 24 24 23
3 3 3 4 4 5 6 7 8 9 10 11 12 12 13 14 15 16 16 17 17 17 18 18 18 18 17 17 16 16 16 17 17 18 18 19 19 20 20 21 21 22 22 23 24 25 26 26 27 27 27 27 26 25 25 25 26 26 26 27 28 29 28 28 27 26 25 25 25
2 2 2 3 3 4 5 6 7 8 10 11 12 13 14 15 16 16 17 17 17 17 18 18 18 18 17 17 17 17 17 17 18 18 19 19 20 20 21 21 22 22 23 24 25 25 26 27 27 28 27 27 26 25 26 26 26 27 28 29 29 29 29 28 27 27 27 26 26
2 2 2 2 3 4 5 7 8 9 10 11 12 13 14 15 16 16 16 17 17 18 18 18 18 18 17 17 17 17 17 18 18 19 19 20 20 21 21 22 22 23 24 25 25 26 27 27 28 28 28 27 26 26 26 27 27 29 30 30 30 29 29 28 28 28 28 28 27
2 1 2 3 4 5 6 7 8 9 10 11 12 13 14 15 15 16 16 17 17 18 18 18 18 18 18 18 17 18 18 18 19 19 20 20 21 21 22 22 23 24 25 25 26 27 28 28 28 28 28 27 27 27 27 28 29 30 31 31 30 30 29 29 29 29 29 29 28
1 1 2 3 5 6 7 8 9 10 11 12 12 13 14 15 15 16 16 17 17 18 19 19 18 18 18 18 18 18 19 19 19 20 20 21 21 22 22 23 24 25 26 26 27 28 28 29 29 29 28 28 28 28 29 30 30 31 31 31 31 30 30 30 30 30 29 28 28
1 2 3 4 5 7 8 9 10 11 11 12 13 13 14 15 15 16 16 17 18 19 19 19 19 18 18 18 19 19 19 20 20 20 21 21 22 23 23 24 25 26 27 28 28 29 29 29 29 29 29 29 29 30 30 31 31 31 31 31 31 32 31 30 30 29 28 27 27
2 3 4 5 6 7 8 9 10 11 12 13 13 14 15 15 16 16 17 18 19 19 19 19 19 19 19 19 19 19 20 20 21 21 22 22 23 24 25 26 26 27 28 29 29 29 30 30 30 30 30 30 30 30 31 31 31 31 31 31 32 32 32 31 29 28 28 27 27
3 4 5 6 7 8 9 10 11 12 12 13 13 14 15 15 16 17 17 18 19 19 19 20 20 20 19 20 20 20 20 21 21 22 22 23 24 25 26 27 28 28 29 29 30 30 31 31 31 32 31 31 30 31 31 31 31 32 32 32 32 32 32 31 29 28 27 27 28
4 5 6 7 8 9 10 11 12 12 13 13 14 14 15 16 16 17 18 18 19 19 20 20 20 20 20 20 20 21 21 21 22 23 23 24 25 26 27 28 28 29 30 30 30 31 31 31 32 32 32 31 30 30 31 31 32 32 33 33 32 31 30 30 28 28 28 28 29
4 5 6 8 9 10 11 11 12 13 13 14 14 14 15 16 16 17 18 18 19 20 20 21 21 21 21 21 21 21 22 22 23 23 24 25 26 27 28 28 29 30 30 30 31 31 32 32 32 31 31 31 31 31 31 32 32 32 32 32 31 30 30 29 29 28 29 29 29
5 6 7 8 9 10 11 12 12 13 13 14 14 15 15 16 17 17 18 18 19 20 21 21 21 21 21 21 22 22 22 23 24 24 25 26 27 28 28 29 30 30 31 31 31 32 32 32 31 31 31 31 31 32 32 32 32 32 32 31 31 30 30 29 29 29 29 30 30
6 7 8 9 10 11 12 12 13 13 13 14 14 15 16 16 17 18 18 19 20 20 21 21 21 21 21 22 22 23 23 24 25 25 26 27 28 29 29 30 30 31 31 32 32 32 32 32 31 31 31 31 31 32 32 33 32 32 31 31 30 30 30 30 30 30 30 30 30
6 8 9 10 10 11 12 12 13 13 13 14 15 15 16 17 18 18 19 20 20 21 21 21 22 22 22 22 23 23 24 25 26 27 27 28 29 30 30 31 31 32 32 32 32 32 32 31 31 30 30 30 31 32 33 33 33 32 31 31 30 30 30 30 30 30 30 30 30
8 9 9 10 11 11 12 12 13 13 14 14 15 16 16 17 18 19 20 20 21 21 21 22 22 22 23 23 24 24 25 26 27 28 29 30 30 31 31 32 32 32 32 32 32 32 32 32 31 30 30 30 31 32 33 34 33 32 32 31 31 30 30 30 30 30 30 30 30
9 9 10 11 11 11 12 12 13 13 14 15 16 16 17 18 19 20 20 21 21 21 22 22 22 22 23 24 25 26 27 28 29 29 30 31 31 32 32 32 32 32 32 32 32 32 32 31 30 29 29 30 32 33 34 34 34 33 33 32 31 31 31 31 30 30 30 30 30
9 10 10 11 11 11 12 12 13 14 15 15 16 17 18 19 19 20 21 21 22 22 22 22 23 23 24 25 26 27 28 29 30 31 31 31 32 32 32 32 32 32 32 32 32 32 31 30 29 29 30 32 33 35 35 35 34 34 33 32 32 32 31 31 31 30 30 30 30
10 10 10 11 11 12 12 13 13 14 15 16 17 18 18 19 20 21 21 22 22 22 22 23 23 24 25 26 27 28 29 30 31 31 32 32 32 32 32 32 32 32 32 32 32 31 30 29 29 30 31 33 35 36 36 35 35 34 34 33 32 32 32 31 31 31 30 30 30
10 10 10 11 11 12 12 13 14 15 16 17 17 18 19 20 21 21 21 22 22 22 23 23 24 25 26 27 28 29 30 31 31 32 32 32 32 32 32 32 32 32 32 31 31 30 29 29 30 32 34 35 36 36 36 35 35 35 34 34 33 33 32 32 31 31 30 29 29
9 10 10 11 11 12 13 14 15 15 16 17 18 19 20 20 21 21 21 22 22 23 23 24 25 26 27 28 29 30 31 32 32 32 32 32 32 31 31 31 31 32 31 31 30 30 30 31 32 33 35 36 36 36 36 35 35 35 35 35 34 33 33 32 31 30 29 29 28
10 10 10 11 12 13 13 14 15 16 17 18 18 19 20 20 21 21 21 22 22 23 24 25 26 27 28 29 30 31 32 32 33 32 32 31 31 31 31 31 31 31 31 30 30 30 31 32 33 34 35 36 36 36 36 35 35 35 35 35 34 34 33 32 30 29 29 28 27
10 10 11 12 13 14 14 15 16 17 17 18 19 19 20 20 21 21 21 22 23 24 25 27 28 28 29 30 31 32 32 33 33 32 32 31 31 31 31 31 31 31 31 30 31 31 31 32 33 34 35 35 35 36 36 35 35 35 35 35 34 33 32 31 30 28 28 27 26
10 11 12 13 14 14 15 16 16 17 18 18 19 19 20 20 21 21 22 23 24 25 26 28 29 30 30 31 32 32 32 32 32 32 32 32 32 32 32 32 31 31 31 31 31 31 31 32 33 33 34 34 35 35 35 35 34 34 34 34 33 32 32 31 29 28 27 26 25
10 11 12 13 14 15 16 16 17 17 18 18 19 19 20 20 21 22 23 24 25 26 27 28 29 30 31 32 33 33 32 32 32 32 32 32 32 32 32 32 32 31 31 32 32 32 32 32 32 32 33 33 34 35 35 35 34 33 33 32 31 30 30 29 28 27 26 25 25
11 12 13 13 15 15 16 16 17 17 18 18 19 19 20 21 22 23 24 25 26 27 28 29 30 31 32 33 33 33 32 32 32 32 32 32 32 33 33 33 32 32 32 32 32 33 33 33 32 32 32 32 32 33 33 34 34 33 32 31 30 29 28 28 27 27 26 26 25
11 12 13 14 15 15 16 16 16 17 17 18 19 20 20 22 23 24 25 26 27 28 29 30 31 32 33 33 32 32 32 32 32 32 32 32 33 33 33 33 33 33 33 33 33 33 33 32 32 32 31 31 31 31 32 32 32 31 30 29 28 27 27 26 26 26 26 26 26
11 12 13 14 15 15 16 16 16 17 18 18 19 20 21 23 24 25 26 27 28 29 30 31 32 33 33 32 32 32 32 32 32 32 32 33 33 33 34 34 34 34 34 33 33 32 32 32 31 31 31 30 30 30 31 30 30 29 28 28 27 26 26 26 26 26 26 26 27
12 12 13 14 14 15 15 15 16 17 18 19 20 21 22 24 25 26 27 28 29 30 31 32 33 33 32 32 32 32 31 32 32 32 33 33 34 34 34 34 34 34 34 33 32 31 31 31 31 31 30 30 29 29 29 28 28 27 27 27 26 26 26 26 26 26 26 27 27
12 12 13 14 14 14 15 15 16 17 18 20 21 22 24 25 26 27 28 29 30 31 32 33 33 32 32 32 32 32 32 32 33 33 33 34 35 35 35 35 35 34 33 32 31 30 30 30 30 30 30 29 28 28 28 28 27 27 26 26 26 26 26 26 26 26 26 27 27
12 12 13 13 13 14 14 15 17 18 19 21 22 23 25 26 27 28 29 30 31 32 32 33 32 32 32 32 32 32 33 33 34 34 34 35 35 36 36 35 34 33 32 31 30 30 30 30 30 30 29 28 28 27 27 27 26 26 26 25 25 25 25 25 26 26 26 27 27
12 12 12 12 13 14 15 16 17 19 20 22 23 24 26 27 28 29 30 31 32 32 32 32 32 32 32 32 33 33 34 34 35 35 35 35 35 36 35 35 33 32 32 31 30 30 30 30 30 29 28 28 27 27 27 26 26 25 25 25 25 25 25 25 26 26 26 27 27
11 12 12 12 13 14 15 17 18 20 21 23 24 25 27 28 29 30 31 31 32 32 32 32 32 32 33 33 33 34 35 35 35 36 36 36 36 35 34 33 32 32 31 30 30 30 30 29 29 28 27 27 27 26 26 26 25 25 25 25 25 25 25 25 26 26 26 26 26
11 11 12 12 13 15 16 18 19 21 22 24 25 26 27 28 29 30 31 32 32 33 33 33 33 33 34 34 34 35 35 36 36 36 36 36 36 35 34 33 32 31 31 30 30 30 29 28 28 27 26 26 26 26 25 25 25 25 25 25 26 26 25 25 26 26 26 26 26
11 11 12 13 14 16 17 19 21 22 23 25 26 27 28 29 30 31 31 32 33 33 33 33 34 34 34 35 35 35 36 36 37 37 36 35 35 34 33 32 32 32 31 31 30 29 28 27 26 26 26 26 25 26 26 26 26 26 26 26 26 26 26 26 26 25 25 25 25
10 11 12 13 15 17 18 20 22 23 24 26 27 28 29 30 30 31 32 32 33 33 33 34 34 35 35 36 36 36 36 37 37 36 36 34 33 32 32 32 32 32 32 31 29 28 26 25 25 25 25 25 25 26 26 26 26 26 26 26 26 26 26 26 25 25 25 25 26
10 11 13 14 16 18 19 21 22 24 25 26 27 28 29 30 31 31 32 32 33 33 34 35 35 35 36 37 37 37 37 37 36 35 35 33 32 31 31 32 32 32 31 30 28 26 25 24 24 24 24 25 25 26 26 26 26 26 26 26 27 26 26 25 25 25 26 26 28
11 12 14 15 17 19 20 22 23 25 26 27 28 29 30 31 31 32 32 33 33 34 34 35 36 36 37 37 37 37 37 36 35 34 33 32 31 30 30 31 32 31 30 28 27 25 24 23 23 23 23 24 25 26 26 26 26 26 26 26 26 26 26 25 26 26 27 29 31
12 13 15 16 18 20 21 23 24 25 26 27 29 30 30 31 32 32 33 33 34 34 35 35 36 36 37 37 37 37 37 36 34 33 32 31 30 30 30 30 31 30 28 27 25 24 23 22 22 22 23 24 25 26 26 26 26 26 26 26 26 26 27 27 27 28 30 31 32
13 14 16 17 19 21 22 23 24 26 27 28 29 30 31 32 32 33 33 34 34 34 35 36 36 36 36 36 36 36 36 35 34 32 31 30 29 29 29 29 29 28 27 25 24 23 22 22 22 22 22 23 25 25 26 26 26 26 26 26 26 27 28 29 30 31 31 32 32
Wind_Direction
23 21 19 15 12 8 5 2 359 356 354 352 350 347 345 343 340 338 337 335 333 329 326 323 319 317 314 313 313 314 315 315 315 316 317 317 318 319 320 321 322 323 324 324 325 326 326 327 328 329 331 332 333 333 331 328 326 325 324 324 323 322 322 322 321 321 319 316 312
33 26 18 11 5 360 356 353 350 349 347 346 345 344 342 341 340 338 336 334 332 329 326 322 318 315 313 312 312 312 313 314 314 315 316 317 317 318 319 320 321 322 322 323 324 325 326 327 328 330 331 332 333 331 329 326 325 325 323 322 321 321 321 321 321 320 317 314 311
40 28 17 10 3 357 351 347 343 343 342 342 341 341 342 341 340 338 336 334 332 329 325 321 317 314 311 310 311 311 312 313 314 314 315 316 316 317 318 319 320 320 321 322 323 325 326 327 328 330 331 332 331 330 327 325 324 323 322 321 321 321 321 320 319 318 315 312 310
51 38 24 13 3 355 347 343 340 340 340 339 340 341 342 342 341 339 337 334 332 328 324 319 316 312 310 309 310 311 312 313 314 314 314 315 315 316 317 317 318 319 320 322 323 325 326 327 328 330 330 330 329 327 325 324 323 322 321 320 321 321 320 319 317 315 313 311 309
70 55 35 16 2 351 345 341 340 338 338 338 340 342 343 342 341 339 337 334 330 326 322 318 314 311 309 309 309 311 312 313 314 314 314 314 314 315 315 316 317 318 320 321 323 325 326 327 328 329 329 328 327 325 323 323 322 320 320 320 320 320 319 318 316 314 312 310 309
81 65 39 12 357 348 343 339 338 338 338 339 342 343 343 342 340 338 334 331 328 324 321 317 313 311 310 309 310 311 312 312 313 313 313 313 313 314 315 316 317 318 320 322 323 325 326 327 328 328 327 326 324 323 321 321 320 320 320 320 320 319 318 317 315 314 312 311 309
85 55 24 360 349 343 340 337 336 337 338 339 342 342 341 340 338 335 332 329 326 322 319 315 312 311 310 310 310 311 311 312 312 313 313 313 313 314 314 315 317 318 320 322 324 325 326 326 327 327 326 325 323 321 320 320 320 320 320 320 320 318 317 316 315 313 312 311 308
72 18 355 345 340 339 337 336 336 337 338 339 339 339 338 337 335 332 330 328 324 321 317 314 312 310 310 310 310 311 311 312 312 312 312 313 313 314 315 316 317 319 321 322 324 325 326 326 326 326 325 324 322 321 320 321 321 321 320 319 319 318 316 315 315 313 311 308 305
19 352 343 339 337 336 336 336 336 337 337 337 336 336 335 334 332 330 328 325 322 319 315 313 311 310 310 311 311 311 311 311 312 312 312 313 314 314 315 317 318 320 322 323 324 325 325 325 325 325 324 323 322 321 321 321 321 321 319 318 318 317 316 315 314 312 309 305 302
345 342 341 339 337 335 336 336 336 336 336 335 334 333 332 331 330 329 326 324 321 318 315 312 311 311 311 311 311 311 312 312 312 312 313 314 315 316 317 318 320 322 323 324 324 324 325 325 325 324 323 322 322 321 321 321 321 320 318 317 317 317 316 314 313 310 306 303 300
333 337 338 336 335 335 335 336 335 335 334 333 332 330 329 328 328 326 325 322 320 317 314 312 311 311 311 311 311 312 312 312 313 313 314 315 316 317 318 320 322 323 324 324 324 324 324 324 324 324 323 322 322 321 320 320 320 319 318 317 317 316 314 313 310 307 303 301 299
331 335 335 333 333 334 335 335 335 334 333 331 330 328 327 326 325 324 323 321 318 315 313 312 312 311 311 311 311 312 312 313 314 314 315 316 317 319 320 322 323 323 323 323 323 323 323 324 323 323 322 322 321 320 320 319 319 318 317 317 316 314 312 310 307 304 302 300 299
328 331 331 331 332 333 334 334 334 333 331 330 328 327 325 323 322 322 320 318 316 314 313 312 312 312 312 312 312 313 313 314 314 315 316 317 319 320 322 322 323 323 322 322 322 323 323 323 323 322 321 320 320 319 319 319 319 318 317 316 314 312 309 306 305 303 302 300 299
324 326 327 329 331 332 333 333 332 331 330 328 326 325 323 321 320 320 318 317 315 314 313 313 313 313 313 313 313 314 314 315 315 316 317 319 320 321 322 322 322 322 322 322 322 322 323 323 323 322 320 319 319 319 319 319 318 317 315 314 312 309 307 305 304 303 302 300 299
317 322 325 328 329 330 331 331 330 329 327 325 324 322 321 319 318 318 317 316 315 314 314 313 313 313 313 314 314 315 315 316 316 317 318 319 320 321 321 321 321 321 322 322 322 322 323 323 322 321 320 318 318 318 318 318 317 316 314 312 309 307 305 304 303 302 301 300 299
313 319 323 326 328 328 329 329 328 326 324 322 320 319 319 318 317 317 317 316 315 315 314 314 314 314 314 315 315 316 316 317 317 318 319 320 321 321 321 321 321 322 322 322 322 322 322 322 321 320 318 317 316 316 317 317 316 314 312 310 308 306 304 303 303 302 301 300 299
313 318 322 325 326 326 326 326 325 323 321 319 318 317 317 316 316 317 316 316 316 315 315 315 315 315 316 316 316 317 317 318 318 319 320 320 320 321 321 321 322 322 322 323 323 323 322 322 320 319 317 315 314 315 315 316 315 313 312 310 307 305 304 303 302 301 300 300 299
314 318 322 323 324 324 324 323 322 321 319 317 316 316 316 316 316 316 317 316 316 316 316 316 316 316 317 317 318 318 318 319 319 319 319 320 320 321 321 322 322 323 323 323 323 322 322 321 319 317 314 313 313 314 315 315 314 313 311 309 307 306 304 303 302 301 300 299 299
314 318 320 321 321 321 321 321 320 319 318 316 316 316 316 317 317 317 317 317 317 317 317 317 317 317 317 318 318 319 319 319 319 319 319 320 320 321 322 323 323 323 323 322 322 322 321 320 317 314 312 312 313 315 315 315 314 313 311 309 307 306 304 303 302 301 300 299 298
314 317 318 319 320 320 320 320 319 318 317 316 316 316 317 318 318 319 319 319 319 319 318 318 318 318 318 318 318 319 319 319 319 319 320 320 322 323 324 324 324 323 323 322 322 321 320 317 314 312 312 313 315 316 316 316 314 313 311 309 307 306 305 304 303 301 300 299 298
313 315 317 318 319 319 320 320 319 318 318 317 317 318 319 319 320 320 320 320 320 320 320 319 319 319 319 318 318 318 318 318 319 320 321 322 323 324 324 324 323 323 322 321 321 319 317 315 313 312 314 315 316 317 316 315 314 312 311 309 308 306 305 304 303 302 300 299 298
313 315 317 318 319 320 320 320 320 319 318 318 319 319 320 321 321 321 321 321 321 321 320 320 319 319 319 318 318 318 318 319 320 321 323 324 325 325 324 324 323 322 322 321 319 318 316 314 313 314 316 317 317 317 316 314 313 312 310 309 308 307 306 305 304 302 300 299 299
313 316 317 318 319 320 321 320 320 319 319 319 320 321 321 321 322 322 322 322 321 321 320 320 319 319 318 318 318 318 319 321 322 324 325 325 325 325 324 323 322 322 321 319 318 317 316 315 315 316 317 317 317 316 315 313 312 311 310 309 308 307 306 305 304 302 301 300 300
313 315 317 319 320 321 321 320 319 319 319 320 321 322 322 322 322 322 322 322 321 321 320 320 319 319 319 319 320 321 322 324 326 326 327 326 325 325 324 323 322 321 320 319 318 317 316 315 315 316 316 316 315 315 314 312 311 310 309 309 308 307 307 306 304 303 301 301 301
313 315 318 320 321 320 319 318 318 319 320 321 321 322 322 322 322 322 322 321 321 320 320 320 320 320 320 321 322 324 325 327 327 327 327 326 326 325 324 324 322 321 319 319 318 317 316 315 314 314 314 314 314 313 312 311 310 309 309 308 307 307 306 306 305 303 302 303 302
313 316 318 320 320 319 318 317 318 319 320 321 322 322 322 322 323 322 322 321 321 321 321 321 321 322 322 324 325 327 328 329 328 328 327 326 326 325 325 324 322 320 319 318 317 316 315 315 314 313 313 312 312 311 310 310 309 308 308 308 307 306 306 305 305 304 304 304 304
314 317 319 319 318 317 316 316 318 319 321 322 322 322 322 322 322 322 322 322 322 322 322 323 323 324 325 326 328 329 329 329 328 328 327 326 325 325 324 323 321 320 318 318 317 316 315 315 314 313 312 311 310 309 309 308 308 308 308 307 307 306 305 305 305 305 305 305 305
315 318 318 318 316 315 315 317 319 320 321 322 322 322 322 322 322 322 323 323 323 324 324 325 325 326 327 329 329 329 329 329 328 327 326 325 324 324 323 322 320 319 318 317 317 316 315 314 313 312 311 310 309 308 307 307 308 308 308 307 306 306 305 304 305 305 306 306 307
315 317 317 316 315 315 316 318 320 321 321 321 321 321 322 322 323 323 324 324 325 325 326 326 327 328 329 330 330 329 329 328 327 326 325 324 323 323 322 321 320 319 318 318 317 316 314 313 312 311 310 310 309 308 307 307 307 307 307 306 306 305 305 305 305 305 306 307 307
314 315 314 313 314 315 317 319 320 321 321 321 321 322 322 323 324 325 325 326 326 327 327 328 329 330 330 330 329 328 328 327 326 325 324 323 322 322 321 321 320 319 318 317 316 314 313 311 310 310 310 310 309 309 308 307 307 306 306 305 306 305 305 305 305 305 306 307 307
312 312 312 313 314 316 318 319 320 320 320 321 321 322 323 324 325 326 327 327 327 328 328 329 330 330 330 330 329 327 326 326 325 325 324 323 322 321 321 320 319 318 317 316 315 313 311 310 309 309 310 310 310 310 309 308 307 306 306 306 306 306 305 305 305 306 306 306 307
310 310 311 314 316 317 318 319 319 319 320 320 322 323 324 325 326 327 328 328 328 329 329 330 330 330 329 329 328 327 326 325 325 324 324 323 322 321 320 320 318 317 316 315 313 312 310 309 309 310 310 311 311 310 309 308 308 307 307 307 306 306 305 306 306 306 306 306 306
309 311 313 315 317 318 318 318 318 319 320 321 323 324 325 326 327 328 328 329 329 330 330 330 330 329 329 328 327 326 326 325 325 324 324 323 322 321 320 318 317 316 315 314 312 311 310 310 310 311 312 313 313 312 311 310 310 310 310 308 307 306 306 306 306 305 305 305 305
311 313 316 318 318 318 318 317 318 319 320 322 324 325 327 327 328 329 329 330 330 330 330 330 329 329 328 327 327 326 325 325 324 324 323 323 322 320 318 317 315 315 314 313 312 311 310 311 311 313 314 315 314 313 312 312 311 311 310 308 307 306 306 306 306 306 305 305 305
314 317 318 318 318 317 317 317 318 320 321 323 325 326 327 328 329 329 329 330 330 330 330 329 329 329 328 327 327 326 325 324 324 323 323 322 321 319 317 315 314 314 313 312 312 312 312 313 314 315 315 315 315 314 314 313 312 311 310 309 308 308 307 307 307 307 306 305 306
315 318 318 317 316 316 316 317 319 321 323 325 326 327 328 329 329 330 330 330 330 329 329 329 328 328 327 327 326 326 325 324 324 323 323 322 320 318 316 314 313 313 313 314 314 314 314 314 314 315 316 315 315 315 315 314 313 312 311 310 310 309 309 309 309 308 307 306 306
316 317 316 315 315 315 316 318 320 322 324 326 327 328 328 329 329 330 330 330 330 329 328 328 328 327 327 327 326 326 325 325 324 323 322 321 319 317 315 314 313 313 314 315 315 315 314 314 314 314 315 315 315 315 315 314 313 312 312 311 311 311 311 311 309 309 308 307 307
315 315 314 314 314 315 317 320 322 324 326 327 328 328 329 330 330 330 330 330 329 329 328 328 327 327 327 327 326 326 326 325 324 323 321 319 317 315 314 313 312 313 315 316 316 315 313 313 313 314 315 315 315 315 314 314 313 313 312 312 312 312 312 311 311 310 309 308 308
313 312 312 313 314 316 319 322 324 325 327 328 328 329 330 330 330 330 330 330 329 328 327 327 327 327 327 327 326 325 325 324 323 322 320 318 316 314 312 312 312 313 314 315 315 313 312 312 312 314 315 315 314 314 314 314 313 313 313 313 313 312 312 312 312 310 309 309 311
310 311 312 313 316 318 321 323 325 327 328 329 329 330 330 331 330 330 330 329 329 328 327 326 326 326 327 327 325 324 324 324 323 321 319 316 314 312 311 311 311 312 313 314 313 312 311 311 312 314 315 315 314 314 315 314 314 313 313 314 313 313 312 312 312 311 311 312 313
308 310 312 315 318 320 323 325 326 328 329 330 331 331 331 331 330 330 329 329 328 327 326 326 326 326 327 326 325 324 323 322 321 320 318 315 313 311 310 311 311 311 311 312 312 311 311 311 312 314 315 315 314 314 315 315 314 314 314 313 313 313 313 313 313 313 314 314 315
Height
1485 1485 1485 1485 1485 1485 1485 1485 1485 1485 1485 1485 1485 1485 1484 1484 1484 1483 1482 1482 1481 1481 1480 1479 1479 1478 1477 1477 1476 1475 1475 1474 1473 1472 1472 1471 1470 1469 1468 1467 1466 1466 1465 1464 1462 1461 1460 1459 1458 1457 1456 1454 1453 1452 1451 1450 1449 1447 1446 1445 1444 1443 1441 1440 1439 1438 1437 1436 1435
1485 1485 1485 1485 1485 1485 1485 1485 1485 1485 1484 1484 1484 1484 1484 1483 1483 1482 1481 1481 1480 1480 1479 1478 1478 1477 1476 1476 1475 1474 1474 1473 1472 1471 1471 1470 1469 1468 1467 1466 1466 1465 1463 1462 1461 1460 1459 1458 1456 1455 1454 1453 1452 1451 1450 1449 1447 1446 1445 1444 1442 1441 1440 1438 1437 1436 1435 1434 1433
1484 1484 1484 1484 1484 1484 1484 1484 1484 1484 1484 1484 1483 1483 1483 1482 1482 1481 1481 1480 1479 1479 1478 1478 1477 1476 1476 1475 1474 1473 1473 1472 1471 1471 1470 1469 1468 1467 1466 1465 1464 1463 1462 1461 1460 1459 1458 1456 1455 1454 1452 1451 1450 1449 1448 1447 1446 1445 1443 1442 1441 1440 1438 1437 1436 1435 1433 1432 1431
1484 1484 1484 1484 1484 1484 1483 1483 1483 1483 1483 1483 1482 1482 1482 1481 1481 1480 1480 1479 1478 1478 1477 1477 1476 1475 1475 1474 1473 1472 1471 1471 1470 1469 1469 1468 1467 1466 1465 1464 1463 1462 1461 1460 1459 1458 1456 1455 1454 1452 1451 1450 1449 1448 1447 1446 1445 1443 1442 1441 1439 1438 1436 1435 1434 1433 1432 1431 1429
1484 1483 1483 1483 1483 1483 1483 1483 1483 1483 1482 1482 1482 1481 1481 1480 1480 1479 1479 1478 1477 1477 1476 1476 1475 1474 1473 1473 1472 1471 1471 1470 1469 1468 1467 1467 1466 1465 1464 1463 1462 1461 1460 1459 1458 1456 1455 1454 1452 1451 1450 1449 1448 1447 1446 1444 1443 1442 1440 1439 1438 1436 1435 1434 1432 1431 1430 1429 1427
1483 1483 1483 1483 1483 1483 1482 1482 1482 1482 1482 1481 1481 1480 1480 1479 1479 1478 1478 1477 1476 1476 1476 1475 1474 1473 1472 1471 1471 1470 1470 1469 1468 1467 1466 1466 1465 1464 1463 1462 1461 1460 1459 1458 1456 1455 1454 1452 1451 1450 1449 1448 1446 1445 1444 1443 1441 1440 1439 1437 1436 1435 1433 1432 1431 1429 1428 1426 1425
1483 1483 1483 1482 1482 1482 1482 1482 1481 1481 1481 1481 1480 1480 1479 1479 1478 1477 1477 1476 1476 1475 1474 1474 1473 1472 1471 1471 1470 1469 1468 1468 1467 1466 1466 1465 1464 1463 1462 1461 1460 1459 1457 1456 1455 1454 1452 1451 1450 1449 1447 1446 1445 1444 1442 1441 1440 1438 1437 1435 1434 1433 1432 1430 1429 1427 1426 1425 1423
1483 1483 1482 1482 1482 1482 1481 1481 1481 1481 1480 1480 1479 1479 1478 1478 1477 1477 1476 1475 1475 1474 1473 1473 1472 1471 1471 1470 1469 1468 1467 1467 1466 1465 1464 1463 1462 1461 1461 1460 1458 1457 1456 1455 1454 1452 1451 1450 1449 1447 1446 1445 1443 1442 1441 1440 1438 1436 1435 1433 1432 1431 1430 1428 1427 1426 1424 1423 1421
1482 1482 1482 1482 1481 1481 1481 1481 1480 1480 1480 1479 1478 1478 1478 1477 1476 1476 1475 1475 1474 1473 1472 1471 1471 1470 1470 1469 1468 1467 1466 1466 1465 1464 1463 1462 1461 1460 1459 1458 1457 1456 1455 1453 1452 1451 1450 1448 1447 1446 1445 1443 1442 1440 1439 1438 1436 1435 1433 1432 1430 1429 1427 1426 1425 1424 1422 1421 1420
1482 1482 1481 1481 1481 1481 1481 1480 1480 1479 1479 1478 1478 1477 1477 1476 1476 1475 1474 1474 1473 1472 1471 1471 1470 1469 1468 1468 1467 1466 1465 1465 1464 1463 1462 1461 1460 1459 1458 1457 1456 1455 1453 1452 1451 1450 1448 1447 1446 1444 1443 1442 1440 1439 1437 1436 1435 1433 1431 1430 1428 1427 1425 1424 1423 1422 1421 1419 1418
1481 1481 1481 1481 1481 1480 1480 1480 1479 1479 1478 1477 1477 1476 1476 1475 1475 1474 1473 1473 1472 1471 1470 1470 1469 1468 1467 1466 1466 1465 1464 1463 1463 1462 1461 1460 1459 1458 1457 1456 1454 1453 1452 1451 1449 1448 1447 1445 1444 1442 1441 1440 1438 1437 1435 1434 1433 1431 1430 1428 1426 1425 1423 1422 1421 1421 1419 1417 1416
1481 1481 1481 1480 1480 1480 1479 1479 1478 1478 1477 1477 1476 1476 1475 1474 1474 1473 1472 1472 1471 1470 1469 1469 1468 1467 1466 1466 1465 1464 1463 1462 1461 1461 1460 1459 1458 1457 1456 1454 1453 1452 1451 1449 1448 1447 1445 1444 1442 1441 1439 1438 1437 1435 1434 1432 1431 1429 1428 1426 1425 1423 1422 1421 1420 1419 1417 1416 1414
1481 1480 1480 1480 1479 1479 1479 1478 1477 1477 1476 1476 1475 1475 1474 1473 1473 1472 1471 1471 1470 1469 1468 1467 1467 1466 1465 1465 1464 1463 1462 1461 1461 1460 1459 1458 1456 1456 1454 1453 1452 1451 1449 1448 1446 1445 1444 1442 1441 1439 1438 1436 1435 1434 1432 1431 1429 1427 1426 1424 1423 1421 1420 1419 1418 1416 1415 1414 1412
1480 1480 1479 1479 1479 1478 1478 1477 1476 1476 1476 1475 1474 1474 1473 1472 1472 1471 1471 1470 1469 1468 1467 1466 1466 1465 1464 1464 1463 1462 1461 1461 1460 1459 1458 1456 1456 1454 1453 1452 1451 1449 1448 1446 1445 1444 1442 1441 1439 1438 1436 1435 1433 1432 1431 1429 1427 1426 1424 1422 1421 1420 1418 1417 1416 1415 1413 1411 1410
1479 1479 1479 1478 1478 1477 1477 1476 1476 1475 1475 1474 1473 1473 1472 1471 1471 1470 1470 1469 1468 1467 1466 1466 1465 1464 1464 1463 1462 1461 1460 1459 1458 1457 1456 1455 1454 1453 1452 1451 1449 1448 1446 1445 1444 1442 1441 1439 1438 1436 1435 1433 1431 1430 1428 1427 1426 1424 1422 1421 1420 1418 1417 1415 1414 1413 1411 1410 1408
1479 1478 1478 1477 1477 1476 1476 1475 1475 1474 1474 1473 1472 1472 1471 1471 1470 1469 1468 1468 1467 1466 1466 1465 1464 1463 1462 1462 1461 1460 1459 1458 1457 1456 1455 1454 1453 1452 1451 1449 1448 1446 1445 1443 1442 1441 1439 1438 1436 1435 1433 1431 1430 1428 1426 1425 1424 1422 1421 1419 1418 1416 1415 1413 1412 1411 1409 1408 1406
1478 1478 1477 1477 1476 1476 1475 1474 1474 1473 1473 1472 1471 1471 1471 1470 1469 1468 1467 1467 1466 1466 1465 1464 1463 1462 1461 1461 1460 1459 1458 1457 1456 1455 1454 1453 1451 1450 1449 1448 1446 1445 1443 1442 1440 1439 1437 1436 1435 1433 1431 1430 1428 1426 1425 1423 1421 1420 1419 1417 1416 1415 1413 1411 1410 1409 1407 1405 1404
1477 1477 1476 1476 1475 1475 1474 1473 1473 1472 1472 1471 1471 1470 1470 1469 1468 1467 1466 1466 1465 1465 1464 1463 1462 1461 1461 1460 1459 1458 1457 1456 1455 1454 1453 1451 1450 1449 1447 1446 1445 1443 1441 1440 1439 1437 1436 1434 1433 1431 1430 1428 1426 1425 1423 1421 1420 1418 1416 1415 1414 1412 1411 1409 1408 1406 1405 1403 1401
1476 1476 1475 1475 1474 1474 1473 1473 1472 1471 1471 1471 1470 1469 1468 1468 1467 1466 1466 1465 1464 1464 1463 1462 1461 1461 1460 1459 1458 1457 1456 1455 1454 1452 1451 1450 1449 1447 1446 1444 1443 1441 1440 1438 1437 1436 1434 1432 1431 1430 1428 1426 1425 1423 1421 1419 1417 1416 1414 1413 1411 1410 1408 1407 1406 1404 1402 1401 1399
1475 1475 1474 1474 1473 1473 1472 1472 1471 1471 1470 1469 1469 1468 1467 1467 1466 1465 1465 1464 1463 1463 1462 1461 1460 1460 1459 1458 1457 1456 1455 1454 1452 1451 1450 1448 1447 1446 1444 1442 1441 1440 1438 1437 1435 1434 1432 1431 1430 1428 1426 1425 1422 1421 1419 1417 1415 1414 1412 1411 1409 1407 1406 1404 1403 1401 1400 1398 1397
1474 1474 1473 1473 1472 1472 1471 1471 1470 1470 1469 1468 1468 1467 1466 1466 1465 1464 1464 1463 1462 1462 1461 1460 1459 1459 1458 1457 1456 1455 1453 1452 1451 1450 1448 1447 1445 1444 1442 1441 1439 1438 1436 1435 1434 1432 1431 1430 1428 1426 1424 1422 1420 1418 1416 1415 1413 1411 1410 1408 1406 1405 1403 1402 1400 1399 1397 1396 1395
1473 1473 1472 1472 1471 1471 1471 1470 1469 1469 1468 1467 1467 1466 1466 1465 1464 1463 1463 1462 1461 1461 1460 1459 1458 1457 1456 1456 1455 1453 1452 1451 1450 1448 1446 1445 1444 1442 1441 1439 1438 1436 1435 1434 1432 1431 1429 1428 1426 1424 1422 1420 1418 1416 1414 1413 1411 1409 1407 1405 1404 1402 1401 1399 1398 1396 1395 1394 1392
1472 1472 1472 1471 1471 1470 1470 1469 1468 1468 1467 1466 1466 1465 1465 1464 1463 1463 1462 1461 1461 1460 1459 1458 1457 1456 1456 1454 1453 1452 1451 1449 1448 1446 1445 1444 1442 1441 1439 1438 1436 1435 1433 1432 1431 1429 1428 1426 1424 1422 1420 1418 1416 1414 1412 1410 1408 1406 1405 1403 1401 1400 1398 1397 1396 1394 1393 1391 1390
1471 1471 1471 1470 1470 1469 1469 1468 1467 1467 1466 1466 1465 1464 1464 1463 1462 1462 1461 1461 1460 1459 1458 1457 1456 1455 1454 1453 1452 1451 1449 1447 1446 1445 1443 1442 1441 1439 1438 1436 1435 1433 1432 1431 1429 1428 1426 1424 1422 1420 1418 1416 1414 1412 1410 1408 1406 1404 1402 1401 1399 1397 1396 1394 1393 1392 1391 1389 1388
1471 1470 1470 1469 1469 1468 1468 1467 1466 1466 1465 1465 1464 1463 1463 1462 1462 1461 1461 1460 1459 1458 1457 1456 1455 1454 1453 1451 1450 1449 1447 1446 1444 1443 1441 1440 1439 1438 1436 1435 1433 1432 1430 1429 1427 1426 1425 1423 1421 1419 1417 1414 1412 1410 1408 1406 1404 1402 1401 1399 1397 1395 1393 1392 1391 1390 1389 1388 1387
1470 1469 1469 1468 1468 1467 1467 1466 1466 1465 1464 1464 1463 1462 1462 1461 1461 1460 1460 1459 1458 1457 1456 1455 1454 1452 1451 1450 1448 1447 1446 1444 1443 1441 1440 1439 1437 1436 1435 1433 1432 1430 1428 1427 1426 1424 1423 1421 1420 1418 1416 1413 1411 1408 1406 1404 1402 1401 1399 1397 1395 1393 1392 1390 1389 1388 1387 1386 1385
1469 1468 1468 1467 1467 1466 1466 1465 1465 1464 1463 1463 1462 1462 1461 1461 1460 1459 1459 1458 1457 1456 1455 1454 1452 1451 1450 1448 1447 1445 1444 1443 1441 1440 1439 1437 1436 1434 1433 1431 1430 1428 1427 1426 1424 1422 1421 1419 1418 1416 1414 1412 1409 1407 1404 1402 1400 1398 1397 1395 1394 1392 1391 1389 1387 1386 1385 1384 1383
1468 1467 1467 1466 1466 1466 1465 1464 1464 1463 1462 1462 1461 1461 1461 1460 1459 1458 1458 1457 1456 1455 1453 1452 1451 1449 1448 1446 1445 1444 1443 1441 1440 1438 1437 1436 1434 1433 1431 1430 1428 1427 1425 1424 1422 1421 1419 1417 1416 1414 1412 1411 1408 1405 1403 1401 1398 1396 1395 1394 1392 1391 1389 1388 1386 1385 1384 1382 1381
1466 1466 1466 1466 1465 1465 1464 1463 1463 1462 1462 1461 1461 1460 1460 1459 1458 1457 1456 1456 1454 1453 1452 1451 1449 1448 1446 1445 1444 1442 1441 1440 1438 1437 1436 1434 1432 1431 1430 1428 1426 1425 1423 1422 1420 1419 1417 1416 1414 1412 1410 1409 1406 1404 1401 1399 1397 1395 1393 1392 1391 1389 1388 1386 1385 1384 1382 1381 1379
1466 1465 1465 1465 1464 1464 1463 1462 1462 1461 1461 1461 1460 1459 1459 1458 1457 1456 1455 1454 1453 1452 1451 1449 1448 1446 1445 1444 1442 1441 1440 1438 1437 1436 1434 1432 1431 1429 1428 1426 1425 1423 1421 1420 1418 1417 1415 1414 1412 1410 1408 1406 1405 1402 1400 1398 1396 1394 1392 1391 1389 1388 1387 1385 1384 1382 1381 1379 1377
1465 1465 1464 1464 1463 1463 1462 1462 1461 1461 1460 1460 1459 1458 1458 1457 1456 1455 1454 1453 1451 1450 1449 1448 1446 1445 1444 1442 1441 1440 1438 1437 1436 1434 1433 1431 1429 1427 1426 1424 1422 1421 1419 1418 1416 1415 1413 1412 1410 1408 1406 1405 1402 1400 1398 1396 1394 1392 1391 1389 1388 1386 1385 1384 1382 1381 1379 1378 1376
1464 1464 1463 1463 1462 1462 1461 1461 1461 1460 1460 1459 1458 1458 1457 1456 1455 1454 1453 1451 1450 1449 1447 1446 1445 1443 1442 1441 1440 1438 1437 1436 1434 1432 1431 1429 1427 1426 1424 1422 1421 1419 1417 1416 1415 1413 1412 1410 1408 1406 1404 1402 1401 1399 1396 1395 1393 1391 1389 1388 1386 1385 1384 1382 1381 1379 1378 1376 1375
1463 1463 1462 1462 1461 1461 1461 1461 1460 1460 1459 1458 1457 1457 1456 1455 1454 1452 1451 1450 1449 1447 1446 1445 1443 1442 1441 1439 1438 1436 1435 1434 1432 1431 1429 1427 1426 1424 1422 1420 1419 1417 1416 1415 1413 1411 1410 1408 1406 1404 1402 1401 1399 1396 1395 1393 1391 1390 1388 1386 1385 1384 1382 1381 1379 1378 1376 1375 1373
1462 1462 1461 1461 1461 1460 1460 1460 1459 1459 1458 1457 1456 1456 1455 1453 1452 1451 1450 1448 1447 1446 1445 1443 1442 1441 1440 1438 1437 1435 1433 1432 1431 1429 1427 1426 1424 1422 1420 1419 1417 1416 1414 1413 1411 1410 1408 1406 1404 1402 1401 1399 1397 1395 1393 1391 1390 1388 1387 1385 1384 1382 1381 1379 1378 1376 1375 1373 1372
1461 1461 1461 1460 1460 1460 1460 1459 1459 1458 1457 1456 1456 1454 1453 1452 1451 1450 1448 1447 1446 1444 1443 1442 1441 1440 1438 1437 1436 1434 1432 1430 1429 1427 1426 1424 1422 1420 1418 1417 1415 1414 1413 1411 1410 1408 1406 1404 1402 1401 1399 1397 1395 1393 1391 1390 1388 1387 1385 1384 1382 1381 1379 1377 1376 1375 1373 1372 1371
1461 1460 1460 1460 1459 1459 1459 1458 1458 1457 1456 1455 1454 1453 1452 1451 1450 1448 1447 1446 1444 1443 1442 1441 1439 1438 1437 1435 1434 1432 1431 1429 1427 1425 1424 1422 1420 1418 1416 1415 1413 1412 1411 1409 1407 1406 1404 1402 1401 1399 1398 1396 1394 1392 1391 1389 1387 1385 1383 1382 1380 1379 1377 1376 1374 1373 1372 1371 1369
1460 1459 1459 1459 1459 1458 1458 1457 1457 1456 1455 1454 1453 1452 1451 1449 1448 1447 1446 1444 1443 1441 1440 1439 1438 1436 1435 1434 1432 1431 1429 1427 1426 1424 1422 1420 1419 1417 1415 1413 1411 1410 1409 1407 1406 1404 1402 1401 1400 1398 1396 1395 1393 1391 1389 1387 1386 1384 1382 1380 1378 1377 1376 1374 1373 1371 1370 1369 1368
1459 1459 1459 1458 1458 1458 1457 1457 1456 1455 1454 1453 1452 1451 1449 1448 1447 1446 1444 1443 1442 1440 1439 1437 1436 1435 1434 1432 1431 1429 1427 1426 1424 1422 1420 1419 1417 1416 1414 1411 1410 1408 1407 1405 1404 1402 1401 1400 1398 1397 1396 1394 1392 1390 1388 1386 1384 1382 1381 1379 1377 1376 1374 1373 1371 1370 1368 1367 1366
1458 1458 1458 1458 1457 1457 1456 1456 1455 1454 1453 1451 1450 1449 1448 1446 1445 1444 1443 1442 1441 1439 1438 1436 1435 1434 1432 1431 1429 1427 1425 1424 1423 1421 1419 1417 1416 1414 1412 1410 1408 1406 1405 1404 1402 1401 1400 1399 1397 1396 1395 1393 1391 1389 1387 1385 1383 1381 1379 1378 1376 1374 1373 1371 1370 1368 1366 1365 1364
1458 1458 1457 1457 1457 1456 1455 1455 1454 1453 1451 1450 1449 1448 1446 1445 1444 1443 1442 1441 1440 1438 1437 1435 1434 1432 1431 1429 1427 1425 1423 1422 1421 1419 1418 1416 1414 1412 1411 1409 1406 1405 1404 1402 1401 1400 1399 1398 1396 1395 1394 1392 1390 1388 1386 1384 1382 1380 1378 1376 1375 1373 1371 1370 1368 1366 1365 1362 1361
1457 1457 1457 1456 1456 1455 1454 1453 1452 1451 1450 1449 1448 1446 1445 1444 1443 1442 1441 1440 1438 1437 1436 1434 1432 1431 1429 1428 1426 1424 1422 1420 1419 1417 1416 1414 1413 1411 1409 1407 1405 1403 1402 1401 1400 1399 1397 1396 1395 1394 1393 1391 1389 1387 1385 1383 1381 1379 1377 1376 1374 1372 1370 1368 1366 1364 1363 1361 1359